Weather History for Biloxi, MS

Change the Weather History Date:

Monday, September 10, 2012

  Actual Average Record
Temperature  
Mean Temperature 74 °F -  
Max Temperature 85 °F 87 °F 101 °F (1954)
Min Temperature 63 °F 72 °F 62 °F (2011)
Cooling Degree Days 8    
Growing Degree Days 24 (Base 50)    
Moisture  
Dew Point 58 °F    
Average Humidity 58    
Maximum Humidity 74    
Minimum Humidity 37    
Precipitation  
Precipitation 0.00 in - - ()
Sea Level Pressure  
Sea Level Pressure 30.07 in    
Wind  
Wind Speed 4 mph (NE)    
Max Wind Speed 8 mph    
Max Gust Speed -    
Visibility 10 miles    
Events      
Averages and records for this station are not official NWS values.
T = Trace of Precipitation, MM = Missing Value Source: NWS Daily Summary

Daily Weather History Graph

Daily Weather History Graph

Search for Another Location

Airport:

Trip Planner

Search our weather history database for the weather conditions in past years. The results will help you decide how hot, cold, wet, or windy it might be!

Date:

Astronomy

Sep. 10, 2012 Rise Set
Actual Time 6:37 AM CDT 7:06 PM CDT
Civil Twilight 6:13 AM CDT 7:30 PM CDT
Nautical Twilight 5:45 AM CDT 7:59 PM CDT
Astronomical Twilight 5:16 AM CDT 8:27 PM CDT
Moon 1:16 AM CDT (9/10) 3:20 PM CDT (9/10)
Length of Visible Light 13h 17m
Length of Day
12h 29m
Waning Crescent, 30% of the Moon is Illuminated
Sep 10
Waning Crescent
Sep 15
New
Sep 22
First Quarter
Sep 29
Full
Oct 8
Last Quarter

Hourly Weather History & Observations

Time (CDT) Temp. Heat Index Dew Point Humidity Pressure Visibility Wind Dir Wind Speed Gust Speed Precip Events Conditions
12:55 AM 67.6 °F - 58.3 °F 72% 30.05 in 10.0 mi NNE 6.9 mph - N/A   Clear
1:55 AM 67.1 °F - 57.7 °F 72% 30.05 in 10.0 mi NNE 3.5 mph - N/A   Clear
2:55 AM 65.5 °F - 56.7 °F 73% 30.04 in 10.0 mi Calm Calm - N/A   Clear
3:55 AM 64.2 °F - 55.8 °F 74% 30.04 in 10.0 mi NE 3.5 mph - N/A   Clear
4:55 AM 64.2 °F - 55.4 °F 73% 30.04 in 10.0 mi Calm Calm - N/A   Clear
5:55 AM 64.0 °F - 54.9 °F 72% 30.05 in 10.0 mi NNE 4.6 mph - N/A   Clear
6:55 AM 63.5 °F - 54.1 °F 72% 30.07 in 10.0 mi NNE 6.9 mph - N/A   Clear
7:55 AM 65.8 °F - 55.6 °F 69% 30.08 in 10.0 mi NNE 4.6 mph - N/A   Clear
8:55 AM 70.5 °F - 55.8 °F 59% 30.09 in 10.0 mi NE 5.8 mph - N/A   Clear
9:55 AM 76.3 °F - 55.4 °F 48% 30.11 in 10.0 mi ENE 6.9 mph - N/A   Clear
10:55 AM 79.7 °F - 55.9 °F 44% 30.10 in 10.0 mi Variable 6.9 mph - N/A   Clear
11:55 AM 82.4 °F 81.6 °F 54.1 °F 38% 30.10 in 10.0 mi NNE 6.9 mph - N/A   Clear
12:55 PM 82.9 °F 82.0 °F 55.2 °F 38% 30.09 in 10.0 mi North 3.5 mph - N/A   Clear
1:55 PM 84.6 °F 83.4 °F 55.9 °F 37% 30.06 in 10.0 mi Variable 6.9 mph - N/A   Clear
2:55 PM 84.7 °F 83.6 °F 55.8 °F 37% 30.05 in 10.0 mi Variable 4.6 mph - N/A   Clear
3:55 PM 83.1 °F 82.9 °F 58.6 °F 43% 30.04 in 10.0 mi South 6.9 mph - N/A   Clear
4:55 PM 82.8 °F 83.0 °F 59.9 °F 46% 30.05 in 10.0 mi South 8.1 mph - N/A   Clear
5:55 PM 81.5 °F 81.8 °F 59.5 °F 47% 30.06 in 10.0 mi SSW 6.9 mph - N/A   Partly Cloudy
6:55 PM 76.8 °F - 60.3 °F 56% 30.06 in 10.0 mi SW 4.6 mph - N/A   Clear
7:55 PM 77.0 °F - 59.7 °F 55% 30.06 in 10.0 mi Calm Calm - N/A   Clear
8:55 PM 76.1 °F - 63.1 °F 64% 30.07 in 10.0 mi Calm Calm - N/A   Clear
9:55 PM 74.7 °F - 64.2 °F 70% 30.08 in 10.0 mi Calm Calm - N/A   Clear
10:55 PM 73.2 °F - 63.1 °F 71% 30.08 in 10.0 mi Calm Calm - N/A   Clear
11:55 PM 71.6 °F - 61.7 °F 71% 30.07 in 10.0 mi Calm Calm - N/A   Clear